Stations météo

réclame
Mon MeteoGroup
Ploumanach, France (7117): Température de l'air & dewpoint: 07.08.2020 21:00:00 - 13.08.2020 21:00:00 (CEST)Ploumanach, France (7117): Vitesse du vent & gusts: 07.08.2020 21:00:00 - 13.08.2020 21:00:00 (CEST)Ploumanach, France (7117): Direction du vent: 07.08.2020 21:00:00 - 13.08.2020 21:00:00 (CEST)Ploumanach, France (7117): reduced air pressure: 07.08.2020 21:00:00 - 13.08.2020 21:00:00 (CEST)Ploumanach, France (7117): visibility: 07.08.2020 21:00:00 - 13.08.2020 21:00:00 (CEST)Ploumanach, France (7117): Quantités de précipitations: 07.08.2020 21:00:00 - 13.08.2020 21:00:00 (CEST)
Date & Time tt [°C] td [°C] ff [km/h] ff [knt] fx [km/h] fx [knt] dd ppp [hPa] vv [km] rr [mm]
13.08.2020 21:00:00 18,4 17,9 2 1 9 5 N 1013,4 - 0,0
13.08.2020 20:00:00 18,8 18,0 3 1 11 6 NE 1013,5 2,0 0,0
13.08.2020 19:00:00 19,7 18,0 8 4 16 8 N 1012,9 - 0,0
13.08.2020 18:00:00 21,5 18,7 9 5 20 11 N 1012,4 - 0,0
13.08.2020 17:00:00 21,2 18,8 10 6 23 12 N 1012,5 2,0 0,0
13.08.2020 16:00:00 21,9 18,5 13 7 24 13 NNW 1012,4 - 0,0
13.08.2020 15:00:00 21,3 18,5 6 3 11 6 NE 1012,3 - 0,0
13.08.2020 14:00:00 20,8 18,4 7 4 11 6 NNE 1012,5 3,0 0,0
13.08.2020 13:00:00 20,0 18,1 5 3 9 5 NE 1012,6 - 0,0
13.08.2020 12:00:00 20,6 17,8 4 2 15 8 E 1012,5 - 0,0
13.08.2020 11:00:00 19,1 18,1 4 2 9 5 NNE 1012,5 1,5 0,0
13.08.2020 10:00:00 18,9 18,2 3 2 6 3 SSW 1012,2 - 0,0
13.08.2020 09:00:00 18,3 18,0 0 0 5 3 N 1012,1 - 0,0
13.08.2020 08:00:00 18,2 17,9 0 0 5 3 N 1012,0 1,5 0,0
13.08.2020 07:00:00 17,8 17,6 0 0 5 3 N 1011,5 - 0,0
13.08.2020 06:00:00 17,9 17,6 0 0 6 3 N 1011,7 - 0,0
13.08.2020 05:00:00 18,0 17,7 0 0 5 3 N 1011,8 - 0,0
13.08.2020 04:00:00 17,9 17,4 2 1 4 2 WNW 1011,8 - 0,0
13.08.2020 03:00:00 18,1 17,6 3 1 7 4 ENE 1011,9 - 0,0
13.08.2020 02:00:00 18,4 17,9 4 2 13 7 SSW 1011,8 - 0,0
13.08.2020 01:00:00 18,0 17,7 11 6 16 8 SW 1011,9 - 0,0
13.08.2020 00:00:00 18,0 17,5 11 6 15 8 WSW 1012,4 - 0,0
12.08.2020 23:00:00 18,4 17,9 8 4 13 7 WSW 1012,6 - 0,0
12.08.2020 22:00:00 18,9 17,9 4 2 21 11 W 1012,6 - 0,0
12.08.2020 21:00:00 19,9 18,6 13 7 19 10 WSW 1011,6 - 0,0
12.08.2020 20:00:00 21,4 19,1 6 3 11 6 W 1011,1 6 0,0
12.08.2020 19:00:00 19,6 18,3 4 2 13 7 SSW 1011,8 - 0,0
12.08.2020 18:00:00 19,5 18,2 7 4 27 15 N 1011,9 - 0,0
12.08.2020 17:00:00 19,1 18,4 11 6 22 12 ESE 1013,0 1,5 0,0
12.08.2020 16:00:00 20,8 18,4 6 4 22 12 NNE 1012,4 - 0,0
12.08.2020 15:00:00 22,0 18,8 16 9 24 13 W 1011,5 - 0,0
12.08.2020 14:00:00 22,4 18,6 11 6 18 10 W 1011,6 1,5 0,0
12.08.2020 13:00:00 22,2 18,4 6 4 13 7 NE 1012,3 - 0,0
12.08.2020 12:00:00 20,2 18,9 4 2 12 7 ESE 1012,6 - 0,0
12.08.2020 11:00:00 18,5 18,3 5 3 11 6 E 1012,4 0,1 0,0
12.08.2020 10:00:00 18,3 18,3 6 3 8 4 ENE 1012,0 - 0,0
12.08.2020 09:00:00 18,2 18,2 0 0 9 5 N 1011,6 - 0,0
12.08.2020 08:00:00 17,9 17,9 2 1 14 8 SE 1011,9 0,1 0,2
12.08.2020 07:00:00 17,8 17,8 8 5 18 10 SW 1011,6 - 0,0
12.08.2020 06:00:00 18,0 18,0 13 7 19 10 SW 1011,8 - 0,0
12.08.2020 05:00:00 18,0 18,0 9 5 17 9 SW 1012,1 - 0,0
12.08.2020 04:00:00 17,3 17,3 9 5 14 8 SW 1012,2 - 0,0
12.08.2020 03:00:00 17,7 17,7 8 4 11 6 S 1012,6 - 0,0
12.08.2020 02:00:00 18,0 17,8 3 2 9 5 SSW 1012,8 - 0,0
12.08.2020 01:00:00 18,0 17,8 7 4 13 7 WSW 1012,9 - 0,0
12.08.2020 00:00:00 18,2 17,9 9 5 12 7 WSW 1013,2 - 0,0
11.08.2020 23:00:00 18,5 18,0 6 3 8 5 W 1013,6 - 0,0
11.08.2020 22:00:00 19,0 18,2 5 3 8 4 W 1013,6 - 0,0
11.08.2020 21:00:00 19,8 18,5 3 2 11 6 N 1013,1 - 0,0
11.08.2020 20:00:00 20,5 18,6 8 4 12 6 ENE 1012,9 1,5 0,0
11.08.2020 19:00:00 21,2 18,8 7 4 13 7 NNE 1012,6 - 0,0
11.08.2020 18:00:00 20,6 18,7 9 5 16 9 ENE 1012,7 - 0,0
11.08.2020 17:00:00 21,3 18,5 8 4 16 8 ENE 1013,3 1,5 0,0
11.08.2020 16:00:00 20,9 18,1 10 6 23 13 NNE 1013,7 - 0,0
11.08.2020 15:00:00 20,0 18,3 9 5 19 10 ENE 1013,9 - 0,0
11.08.2020 14:00:00 22,5 18,7 11 6 16 9 NNE 1014,2 1,5 0,0
11.08.2020 13:00:00 21,9 18,7 9 5 16 9 NE 1014,3 - 0,0
11.08.2020 12:00:00 20,9 18,5 9 5 13 7 ENE 1014,5 - 0,0
11.08.2020 11:00:00 19,1 18,9 8 4 12 6 E 1014,5 1,0 0,0
11.08.2020 10:00:00 18,5 18,5 6 3 10 6 NE 1014,8 - 0,0
11.08.2020 09:00:00 18,5 18,5 4 2 8 4 NW 1014,7 - 0,0
11.08.2020 08:00:00 17,6 17,3 3 2 7 4 W 1014,6 1,0 0,0
11.08.2020 07:00:00 17,9 17,7 3 2 10 5 ENE 1014,4 - 0,2
11.08.2020 06:00:00 17,6 17,4 4 2 7 4 E 1014,3 - 0,0
11.08.2020 05:00:00 17,7 17,7 0 0 8 4 N 1014,5 - 0,0
11.08.2020 04:00:00 17,6 17,4 6 3 9 5 E 1014,6 - 0,0
11.08.2020 03:00:00 17,7 17,5 6 3 9 5 NE 1014,8 - 0,0
11.08.2020 02:00:00 17,5 17,2 4 2 10 5 NNE 1014,9 - 0,0
11.08.2020 01:00:00 17,4 17,1 6 3 8 5 N 1014,9 - 0,0
11.08.2020 00:00:00 17,4 17,1 5 3 11 6 N 1015,0 - 0,0
10.08.2020 23:00:00 17,6 17,1 5 3 10 6 NNE 1014,7 - 0,0
10.08.2020 22:00:00 18,0 17,5 4 2 9 5 ENE 1014,6 - 0,0
10.08.2020 21:00:00 18,9 17,6 6 4 11 6 NNE 1014,2 - 0,0
10.08.2020 20:00:00 20,6 17,8 5 3 9 5 NNE 1014,2 8 0,0
10.08.2020 19:00:00 20,4 17,6 5 3 11 6 E 1014,3 - 0,0
10.08.2020 18:00:00 21,2 17,8 6 3 11 6 NNE 1014,1 - 0,0
10.08.2020 17:00:00 21,7 17,9 9 5 20 11 NNE 1014,6 8 0,0
10.08.2020 16:00:00 21,8 18,2 11 6 23 12 N 1014,6 - 0,0
10.08.2020 15:00:00 21,4 17,6 11 6 19 10 NW 1014,3 - 0,0
10.08.2020 14:00:00 21,5 18,1 12 6 19 10 W 1014,0 8 0,0
10.08.2020 13:00:00 21,2 18,0 10 5 16 8 W 1013,9 - 0,2
10.08.2020 12:00:00 19,6 17,6 3 2 9 5 NW 1014,4 - 0,0
10.08.2020 11:00:00 18,3 17,7 4 2 15 8 WSW 1014,5 8 0,0
10.08.2020 10:00:00 17,8 17,6 5 3 23 12 W 1014,3 - 0,6
10.08.2020 09:00:00 17,9 17,7 14 8 31 17 WSW 1014,7 - 0,6
10.08.2020 08:00:00 17,3 17,1 10 5 15 8 WSW 1013,9 8 0,0
10.08.2020 07:00:00 17,1 16,9 9 5 16 9 WSW 1013,8 - 0,0
10.08.2020 06:00:00 17,3 17,1 12 6 17 9 WSW 1013,9 - 0,0
10.08.2020 05:00:00 17,7 17,4 6 3 11 6 E 1013,6 - 0,0
10.08.2020 04:00:00 17,4 17,1 7 4 16 9 N 1014,3 - 0,2
10.08.2020 03:00:00 17,9 17,7 9 5 20 11 WSW 1015,2 - 0,8
10.08.2020 02:00:00 17,2 17,0 14 7 23 12 WSW 1015,6 - 0,0
10.08.2020 01:00:00 16,9 16,7 11 6 16 9 SW 1015,8 - 0,0
10.08.2020 00:00:00 16,7 16,4 10 5 13 7 SW 1015,8 - 0,0
09.08.2020 23:00:00 17,1 16,6 8 5 14 8 W 1016,3 - 0,0
09.08.2020 22:00:00 17,1 16,1 6 3 13 7 WNW 1016,2 - 0,0
09.08.2020 21:00:00 18,2 16,4 6 4 10 6 WNW 1016,2 - 0,0
09.08.2020 20:00:00 19,9 16,5 6 4 12 7 N 1016,5 8 0,0
09.08.2020 19:00:00 20,8 17,0 9 5 16 9 N 1016,6 - 0,0
09.08.2020 18:00:00 20,6 17,2 10 5 18 10 N 1017,2 - 0,0
09.08.2020 17:00:00 21,2 16,8 11 6 18 10 N 1017,3 8 0,0
09.08.2020 16:00:00 21,9 17,5 11 6 16 8 N 1017,3 - 0,0
09.08.2020 15:00:00 21,3 16,9 10 6 16 9 N 1017,8 - 0,0
09.08.2020 14:00:00 21,4 17,0 10 5 16 9 N 1018,1 8 0,0
09.08.2020 13:00:00 20,4 17,0 10 5 16 9 N 1018,0 - 0,0
09.08.2020 12:00:00 21,3 17,5 10 5 16 9 N 1018,0 - 0,0
09.08.2020 11:00:00 20,1 17,3 7 4 17 9 NW 1018,0 8 0,0
09.08.2020 10:00:00 19,1 17,1 10 6 18 10 W 1018,5 - 0,0
09.08.2020 09:00:00 18,2 17,4 11 6 20 11 W 1018,6 - 0,0
09.08.2020 08:00:00 16,9 16,7 14 7 22 12 WSW 1018,4 8 0,0
09.08.2020 07:00:00 16,6 16,4 16 9 23 13 WSW 1018,3 - 0,0
09.08.2020 06:00:00 16,8 16,6 14 8 24 13 WSW 1018,4 - 0,0
09.08.2020 05:00:00 16,6 16,4 14 8 26 14 WSW 1018,8 - 0,0
09.08.2020 04:00:00 16,5 16,3 13 7 26 14 WSW 1019,1 - 0,0
09.08.2020 03:00:00 16,6 16,4 15 8 23 13 WSW 1019,1 - 0,0
09.08.2020 02:00:00 16,6 16,4 11 6 20 11 WSW 1019,6 - 0,0
09.08.2020 01:00:00 16,4 16,2 14 8 21 12 SW 1019,8 - 0,0
09.08.2020 00:00:00 16,6 16,3 14 7 23 12 WSW 1019,7 - 0,0
08.08.2020 23:00:00 16,8 16,3 16 9 23 13 WSW 1019,9 - 0,0
08.08.2020 22:00:00 17,4 16,3 13 7 22 12 WSW 1019,8 - 0,0
08.08.2020 21:00:00 19,1 16,5 13 7 24 13 W 1019,6 - 0,0
08.08.2020 20:00:00 20,6 16,8 12 7 27 15 W 1019,5 15 0,0
08.08.2020 19:00:00 21,2 16,8 14 8 24 13 W 1019,8 - 0,0
08.08.2020 18:00:00 21,2 17,2 14 8 24 13 WNW 1020,1 - 0,0
08.08.2020 17:00:00 21,0 17,0 13 7 23 12 WNW 1020,4 15 0,0
08.08.2020 16:00:00 21,0 17,0 14 8 25 14 W 1020,7 - 0,0
08.08.2020 15:00:00 21,4 17,0 14 8 24 13 W 1020,8 - 0,0
08.08.2020 14:00:00 21,0 17,2 14 8 27 15 W 1020,9 15 0,0
08.08.2020 13:00:00 20,3 16,9 16 9 27 15 W 1020,8 - 0,0
08.08.2020 12:00:00 19,3 17,1 12 7 24 13 W 1020,8 - 0,0
08.08.2020 11:00:00 18,3 17,1 14 7 26 14 WNW 1020,9 1,0 0,0
08.08.2020 10:00:00 18,9 17,2 13 7 24 13 W 1020,6 - 0,0
08.08.2020 09:00:00 17,9 16,9 13 7 23 13 W 1020,3 - 0,0
08.08.2020 08:00:00 17,1 16,6 12 7 22 12 W 1019,7 20 0,2
08.08.2020 07:00:00 16,8 16,5 13 7 24 13 W 1019,4 - 0,0
08.08.2020 06:00:00 17,0 16,7 14 8 22 12 W 1019,0 - 0,0
08.08.2020 05:00:00 17,3 16,8 10 6 20 11 W 1019,3 - 0,0
08.08.2020 04:00:00 17,3 16,8 11 6 17 9 WSW 1019,0 - 0,0
08.08.2020 03:00:00 17,5 16,7 10 6 19 10 WSW 1019,0 - 0,0
08.08.2020 02:00:00 18,0 16,7 9 5 16 9 WSW 1019,1 - 0,0
08.08.2020 01:00:00 18,1 16,9 6 4 24 13 W 1019,2 - 0,0
08.08.2020 00:00:00 18,1 17,3 15 8 29 16 W 1019,2 - 0,0
07.08.2020 23:00:00 17,8 16,8 18 10 29 16 W 1019,2 - 0,0
07.08.2020 22:00:00 17,8 16,7 11 6 20 11 WSW 1018,6 - 0,0
07.08.2020 21:00:00 18,1 16,8 10 6 22 12 W 1017,7 - 0,0

tt = Température de l'air
td = dewpoint
ff = Vitesse du vent
fx = gusts
dd = Direction du vent
ppp = reduced air pressure
vv = visibility
rr = Quantités de précipitations

stations d'obs. à proximité